sat.trackr.live / text

‹ back to catalog

ONEWEB-0346

NORAD 49212 · 2021-083AC

PAYLOAD ACTIVE UNKNOWN

§ Identity

Operator
Country
UK
Launch date
2021-09-14
Launch site
TYMSC
Launch vehicle
Mass (kg)
RCS (m²)

Purposes: comms

External: N2YO · Heavens-Above · Gunter

§ Orbital elements

Epoch: 2026-09-04T05:00:26.533152Z

Period
109.20 min
Inclination
87.9188°
Eccentricity
0.0002050
Mean motion
13.18687323 rev/d
Perigee alt
1,188.2 km
Apogee alt
1,191.3 km
Semi-major
7,567.9 km
B*
1.1830e-4
RAAN
319.7553°
Arg perigee
116.9928°
Mean anomaly
243.1414°
Rev number
24,039

§ Raw data

ONEWEB-03461 49212U 21083AC  26247.20864043  .00000060  00000+0  11830-3 0  99912 49212  87.9188 319.7553 0002050 116.9928 243.1414 13.18687323240396

JSON: /api/v1/satellites/49212 · /tle

For live sub-satellite position, see the globe view (requires WebGL).

§ Visibility from observer

Set your observer location to see the next 7 days of passes ≥ 10°. The values pass through the URL so the page stays shareable.

No JS? Fill the form by hand. The geolocation button needs JavaScript.